Weather History for Keahole Point, HI

Change the Weather History Date:

Wednesday, April 9, 2014

  Actual Average Record
Temperature  
Mean Temperature 78 °F -  
Max Temperature 82 °F 80 °F 90 °F (1983)
Min Temperature 73 °F 69 °F 66 °F (1982)
Cooling Degree Days 12    
Growing Degree Days 28 (Base 50)    
Moisture  
Dew Point 59 °F    
Average Humidity 53    
Maximum Humidity 66    
Minimum Humidity 42    
Precipitation  
Precipitation 0.00 in - - ()
Sea Level Pressure  
Sea Level Pressure 29.99 in    
Wind  
Wind Speed 6 mph (North)    
Max Wind Speed 12 mph    
Max Gust Speed -    
Visibility 10 miles    
Events      
Averages and records for this station are not official NWS values.
T = Trace of Precipitation, MM = Missing Value Source: NWS Daily Summary

Daily Weather History Graph

Daily Weather History Graph

Search for Another Location

Airport:

Trip Planner

Search our weather history database for the weather conditions in past years. The results will help you decide how hot, cold, wet, or windy it might be!

Date:

Astronomy

Apr. 09, 2014 Rise Set
Actual Time 6:10 AM HST 6:40 PM HST
Civil Twilight 5:48 AM HST 7:02 PM HST
Nautical Twilight 5:22 AM HST 7:28 PM HST
Astronomical Twilight 4:56 AM HST 7:55 PM HST
Moon 2:16 PM HST (4/9) 2:26 AM HST (4/9)
Length of Visible Light 13h 14m
Length of Day
12h 29m
Waxing Gibbous, 73% of the Moon is Illuminated
Apr 9
Waxing Gibbous
Apr 14
Full
Apr 21
Last Quarter
Apr 28
New
May 6
First Quarter

Hourly Weather History & Observations

Time (HST) Temp. Heat Index Dew Point Humidity Pressure Visibility Wind Dir Wind Speed Gust Speed Precip Events Conditions
12:53 AM 75.9 °F - 62.1 °F 62% 30.00 in 10.0 mi North 3.5 mph - N/A   Overcast
1:53 AM 75.0 °F - 62.1 °F 64% 29.98 in 10.0 mi North 6.9 mph - 0.00 in   Overcast
2:53 AM 75.0 °F - 59.0 °F 57% 29.97 in 10.0 mi NNE 9.2 mph - N/A   Overcast
3:53 AM 73.9 °F - 57.0 °F 55% 29.96 in 10.0 mi North 10.4 mph - N/A   Overcast
4:53 AM 73.0 °F - 57.9 °F 59% 29.98 in 10.0 mi North 6.9 mph - N/A   Overcast
5:53 AM 73.9 °F - 60.1 °F 62% 29.99 in 10.0 mi NNE 6.9 mph - N/A   Overcast
6:53 AM 73.9 °F - 62.1 °F 66% 30.01 in 10.0 mi Calm Calm - N/A   Overcast
7:53 AM 78.1 °F - 63.0 °F 60% 30.02 in 10.0 mi ESE 8.1 mph - N/A   Mostly Cloudy
8:53 AM 77.0 °F - 62.1 °F 60% 30.04 in 10.0 mi Calm Calm - N/A   Overcast
9:53 AM 79.0 °F - 62.1 °F 56% 30.04 in 10.0 mi SW 4.6 mph - N/A   Overcast
10:53 AM 82.9 °F 82.6 °F 57.9 °F 42% 30.02 in 10.0 mi West 5.8 mph - N/A   Partly Cloudy
11:53 AM 82.9 °F 82.8 °F 59.0 °F 44% 30.01 in 10.0 mi West 10.4 mph - N/A   Clear
12:53 PM 82.9 °F 82.8 °F 59.0 °F 44% 29.99 in 10.0 mi NNW 11.5 mph - N/A   Clear
1:53 PM 82.9 °F 82.6 °F 57.9 °F 42% 29.97 in 10.0 mi NW 11.5 mph - N/A   Clear
2:53 PM 82.0 °F 82.1 °F 59.0 °F 45% 29.94 in 10.0 mi WNW 9.2 mph - N/A   Clear
3:53 PM 82.0 °F 82.1 °F 59.0 °F 45% 29.94 in 10.0 mi WNW 6.9 mph - N/A   Partly Cloudy
4:53 PM 80.1 °F 80.7 °F 59.0 °F 48% 29.95 in 10.0 mi West 4.6 mph - N/A   Clear
5:53 PM 80.1 °F 80.7 °F 59.0 °F 48% 29.96 in 10.0 mi WSW 4.6 mph - N/A   Overcast
6:35 PM 80.6 °F 81.1 °F 59.0 °F 48% 29.97 in 10.0 mi SSE 8.1 mph - N/A   Scattered Clouds
6:53 PM 78.1 °F - 60.1 °F 54% 29.99 in 10.0 mi SE 8.1 mph - N/A   Scattered Clouds
7:53 PM 77.0 °F - 55.0 °F 47% 30.00 in 10.0 mi East 10.4 mph - N/A   Clear
8:53 PM 75.9 °F - 55.9 °F 50% 30.02 in 10.0 mi NE 5.8 mph - N/A   Clear
9:53 PM 77.0 °F - 55.0 °F 47% 30.04 in 10.0 mi East 6.9 mph - N/A   Clear
10:53 PM 75.0 °F - 53.1 °F 46% 30.04 in 10.0 mi East 4.6 mph - N/A   Clear
11:53 PM 73.0 °F - 60.1 °F 64% 30.03 in 10.0 mi East 4.6 mph - N/A   Clear